TimeEST,TemperatureF,Dew PointF,Humidity,Sea Level PressureIn,VisibilityMPH,Wind Direction,Wind SpeedMPH,Gust SpeedMPH,PrecipitationIn,Events,Conditions,WindDirDegrees,DateUTC
12:15 AM,39.2,26.6,61,29.94,10.0,North,13.8,19.6,N/A,,Overcast,10,2013-03-07 05:15:00
12:35 AM,39.2,24.8,56,29.94,10.0,NNE,16.1,25.3,N/A,,Overcast,20,2013-03-07 05:35:00
12:55 AM,39.2,24.8,56,29.94,10.0,NNE,15.0,24.2,N/A,,Overcast,20,2013-03-07 05:55:00
1:15 AM,39.2,24.8,56,29.94,10.0,NNE,18.4,26.5,N/A,,Overcast,20,2013-03-07 06:15:00
1:35 AM,39.2,24.8,56,29.95,10.0,NNE,18.4,26.5,N/A,,Overcast,20,2013-03-07 06:35:00
1:55 AM,39.2,24.8,56,29.95,10.0,North,13.8,27.6,N/A,,Overcast,10,2013-03-07 06:55:00
2:15 AM,39.2,24.8,56,29.95,10.0,North,16.1,24.2,N/A,,Unknown,10,2013-03-07 07:15:00
2:35 AM,39.2,26.6,61,29.95,10.0,NNE,15.0,23.0,N/A,,Unknown,20,2013-03-07 07:35:00
2:55 AM,39.2,28.4,65,29.95,10.0,NNE,11.5,-,N/A,,Unknown,20,2013-03-07 07:55:00
3:15 AM,39.2,26.6,61,29.95,10.0,North,13.8,19.6,N/A,,Overcast,10,2013-03-07 08:15:00
3:35 AM,39.2,26.6,61,29.95,10.0,North,15.0,25.3,N/A,,Overcast,10,2013-03-07 08:35:00
3:55 AM,39.2,26.6,61,29.96,10.0,North,13.8,20.7,N/A,,Overcast,10,2013-03-07 08:55:00
4:15 AM,39.2,26.6,61,29.96,10.0,North,15.0,24.2,N/A,,Overcast,10,2013-03-07 09:15:00
4:35 AM,39.2,24.8,56,29.97,10.0,North,15.0,21.9,N/A,,Overcast,10,2013-03-07 09:35:00
4:55 AM,37.4,24.8,60,29.98,10.0,NNE,11.5,20.7,N/A,,Overcast,20,2013-03-07 09:55:00
5:15 AM,37.4,24.8,60,29.98,10.0,North,13.8,24.2,N/A,,Overcast,360,2013-03-07 10:15:00
5:35 AM,37.4,24.8,60,29.99,10.0,North,13.8,21.9,N/A,,Overcast,10,2013-03-07 10:35:00
6:45 AM,35.6,24.8,65,30.00,10.0,NNE,15.0,28.8,N/A,,Mostly Cloudy,30,2013-03-07 11:45:00
7:45 AM,35.6,24.8,65,30.02,10.0,NNE,11.5,25.3,N/A,,Mostly Cloudy,30,2013-03-07 12:45:00
8:45 AM,37.4,24.8,60,30.04,10.0,NNE,10.4,24.2,N/A,,Overcast,20,2013-03-07 13:45:00
9:45 AM,37.4,26.6,65,30.03,9.0,NNE,11.5,28.8,N/A,Snow,Light Snow,30,2013-03-07 14:45:00
10:45 AM,39.2,24.8,56,30.04,10.0,NNE,19.6,28.8,N/A,,Overcast,20,2013-03-07 15:45:00
11:45 AM,41.0,26.6,57,30.04,10.0,NNE,15.0,24.2,N/A,,Overcast,20,2013-03-07 16:45:00
12:45 PM,39.2,28.4,65,30.04,8.0,North,11.5,23.0,N/A,,Overcast,360,2013-03-07 17:45:00
1:45 PM,41.0,30.2,65,30.03,8.0,NNE,11.5,21.9,N/A,,Overcast,20,2013-03-07 18:45:00
2:45 PM,39.2,33.8,81,30.04,6.0,NNE,12.7,17.3,N/A,Rain,Light Rain,30,2013-03-07 19:45:00
3:45 PM,37.4,33.8,87,30.06,4.0,NNE,10.4,19.6,N/A,Rain,Light Rain,20,2013-03-07 20:45:00
4:45 PM,35.6,32.0,87,30.07,4.0,North,13.8,20.7,N/A,Snow,Light Snow,350,2013-03-07 21:45:00
5:00 PM,35.6,32.0,87,30.08,2.5,North,8.1,17.3,N/A,Snow,Snow,350,2013-03-07 22:00:00
5:45 PM,35.6,32.0,87,30.09,2.0,North,5.8,-,N/A,Rain,Rain,350,2013-03-07 22:45:00
6:45 PM,33.8,32.0,93,30.09,2.5,North,9.2,-,N/A,Snow,Light Snow,360,2013-03-07 23:45:00
7:45 PM,33.8,32.0,93,30.09,3.0,North,9.2,16.1,N/A,Snow,Light Snow,10,2013-03-08 00:45:00
8:45 PM,33.8,32.0,93,30.09,3.0,North,8.1,-,N/A,Snow,Light Snow,10,2013-03-08 01:45:00
9:45 PM,33.8,32.0,93,30.08,3.0,North,10.4,-,N/A,Snow,Light Snow,360,2013-03-08 02:45:00
9:55 PM,35.6,32.0,87,30.07,4.0,North,8.1,-,N/A,Snow,Light Snow,350,2013-03-08 02:55:00
10:15 PM,35.6,32.0,87,30.07,4.0,NNW,6.9,-,N/A,Snow,Light Snow,340,2013-03-08 03:15:00
10:35 PM,35.6,32.0,87,30.07,2.5,NNW,4.6,-,N/A,Snow,Light Snow,340,2013-03-08 03:35:00
10:55 PM,35.6,32.0,87,30.07,7.0,NNW,8.1,-,N/A,Snow,Light Snow,340,2013-03-08 03:55:00
11:15 PM,35.6,32.0,87,30.07,3.0,North,4.6,-,N/A,Snow,Light Snow,360,2013-03-08 04:15:00
11:35 PM,35.6,32.0,87,30.07,2.0,NNW,4.6,-,N/A,Snow,Light Snow,330,2013-03-08 04:35:00
11:55 PM,35.6,32.0,87,30.07,1.5,NNW,5.8,-,N/A,Snow,Light Snow,340,2013-03-08 04:55:00